This demonstration page uses our WeatherBlox Daily Observations layout. Learn more.

39.29038, -76.61219

Hourly Observations for July 31, 2018

Temp ( °F °C ) Dew Point ( °F °C ) Humidity (%) Winds ( mph kmh ) Pressure ( in mb ) Visibility ( mi km ) Precip ( " mm )
12:54 am 00:54 undefined 74 23.3 70 21.1 88 88 undefined N/A 30.09 1019 N/A 0 0
1:54 am 01:54 undefined 72 22.2 70 21.1 94 94 undefined N/A 30.09 1019 N/A 0.02 0.508
2:54 am 02:54 undefined 72 22.2 70 21.1 94 94 undefined N/A 30.09 1019 N/A 0 0
3:54 am 03:54 undefined 72 22.2 69 20.6 91 91 undefined N/A 30.09 1019 N/A 0 0
4:54 am 04:54 undefined 72 22.2 68 20 87 87 undefined N/A 30.09 1019 N/A 0 0
5:54 am 05:54 undefined 72 22.2 68 20 87 87 undefined N/A 30.1 1019 N/A 0 0
6:54 am 06:54 undefined 72 22.2 68 20 87 87 undefined N/A 30.11 1020 N/A 0 0
7:54 am 07:54 undefined 73 22.8 68 20 84 84 undefined N/A 30.11 1020 N/A 0 0
8:54 am 08:54 undefined 75 23.9 69 20.6 82 82 undefined N/A 30.11 1020 N/A 0 0
9:54 am 09:54 undefined 77 25 70 21.1 79 79 undefined N/A 30.1 1019 N/A 0 0
10:54 am 10:54 undefined 78 25.6 69 20.6 74 74 undefined N/A 30.11 1020 N/A 0 0
11:54 am 11:54 undefined 80 26.7 71 21.7 74 74 undefined N/A 30.11 1020 N/A 0 0
12:54 pm 12:54 undefined 82 27.8 70 21.1 67 67 undefined N/A 30.1 1019 N/A 0 0
1:54 pm 13:54 undefined 83 28.3 71 21.7 67 67 undefined N/A 30.1 1019 N/A 0 0
2:54 pm 14:54 undefined 82 27.8 71 21.7 69 69 undefined N/A 30.08 1019 N/A 0 0
3:54 pm 15:54 undefined 83 28.3 71 21.7 67 67 undefined N/A 30.06 1018 N/A 0 0
4:54 pm 16:54 undefined 83 28.3 72 22.2 70 70 undefined N/A 30.05 1018 N/A 0 0
5:54 pm 17:54 undefined 83 28.3 72 22.2 70 70 undefined N/A 30.05 1018 N/A 0 0
6:54 pm 18:54 undefined 82 27.8 72 22.2 72 72 undefined N/A 30.05 1018 N/A 0 0
7:54 pm 19:54 undefined 81 27.2 73 22.8 77 77 undefined N/A 30.06 1018 N/A 0 0
8:54 pm 20:54 undefined 81 27.2 73 22.8 77 77 undefined N/A 30.06 1018 N/A 0 0
9:54 pm 21:54 undefined 80 26.7 73 22.8 79 79 undefined N/A 30.06 1018 N/A 0 0
10:54 pm 22:54 undefined 80 26.7 74 23.3 82 82 undefined N/A 30.06 1018 N/A 0 0
11:54 pm 23:54 undefined 79 26.1 74 23.3 85 85 undefined N/A 30.04 1017 N/A 0 0

Powered by AerisWeather